FENGYUN 1C DEB, 30246

Orbit data source: Space-Track

FENGYUN 1C DEB, 30246 is space debris in SSO originally from a launch on Mon, 10 May 1999 UTC launched from the Taiyaun Space Center, China (TSC). Fengyun 1C debris stems from the Chinese weather satellite Fengyun-1C, which was intentionally destroyed by a Chinese anti-satellite missile in 2007. This event dramatically increased the amount of space debris, with thousands of trackable fragments posing hazards to satellites and human spaceflight. The Fengyun 1C debris cloud has become a focal point in discussions about space sustainability and the need for international regulations to prevent the creation of new debris.

Loading next visibility...
Identifier
30246, 1999-025XF
Orbit
SSO
Country
Flag of CNCN / PRC
Related business
Manufacturer
Unknown
Mission
Spacecraft
Bus & Motor
Unknown
Mass
Unknown
Launch date (UTC)
1999-05-10 (27 years ago)
Launch vehicle
Unknown
Launch site
Taiyaun Space Center, China (TSC)
Object type
Payload
Rocket body
Debris
Shape & HBR
Unknown shape, 0.1 m
Radar Cross Section
Medium (>0.1 m² and <1 m²)

Expand to show TLE details & history
Last TLE update: 1 day ago

TLE from 1 day ago
0 FENGYUN 1C DEB
1 30246U 99025XF  26254.87881705  .00000090  00000-0  15825-3 0  9996
2 30246  98.7063   4.2080 0370875 133.6438 353.3518 13.37160742957904
Epoch: 2026-09-11T21:05Z
TLE epoch observation values (Epoch: 2026-09-11T21:05:29.793Z)
Latitude
52.73753°
Longitude
-111.51219°
Altitude
852.27 km
Speed
7.567 km/s
True Right ascension
13h 03m 01s
True Declination
52° 34' 26"
Sunlit
Object was in daylight at epoch
Visualization orbit readout
Latitude
Unknown
Longitude
Unknown
Altitude
Unknown
Speed
Unknown
Apparent Right ascension
Unknown
Apparent Declination
Unknown
Sunlit
N/A
Visualization observer readout
Local Sidereal Time
14:33:31
Azimuth
Unknown
Elevation
Unknown
Doppler factor
Unknown
Orbital elements
Apogee altitude
1,395.12 km
Perigee altitude
839.158 km
Semi-major axis
7,495.276 km
Eccentricity
0.03709
Inclination
98.7063°
RAAN
4.208°
Arg. of periapsis
133.6438°
True anomaly
352.83608°
Mean anomaly
353.3518°
Eccentric anomaly
353.09638°
Mean motion
3.34474 °/min
Orbital period
107.63 mins
BSTAR
0.00015825
Loading maneuver chart data...
Computing Atmospheric mass density...

Documentation

Showing up to 5 results
|